Home   Weather   Konya   Past weeks

Flag for Turkey Past Weather in Konya, Turkey — Yesterday and Last 2 Weeks

Now
30 °F

Clear.


Feels Like: 22 °F
Forecast: 18 / 44 °F
Wind: 9 mph from North

Location: Konya Airport

Current Time: Dec 5, 2016 at 11:35:49 pm

Latest Report: Dec 5, 2016 at 10:50 pm


Visibility: 10 mi

Pressure: 30.42 "Hg (26.69 "Hg at 1041m altitude)

Humidity: 75%

Dew Point: 23 °F

Location of KonyaLocation

Past Weather in Konya — Graph

°F

Konya Temperature Yesterday

Maximum temperature yesterday: 48 °F (at 2:50 pm)
Minimum temperature yesterday: 34 °F (at 1:50 am)
Average temperature yesterday: 40 °F

High & Low Weather Summary for the Past Weeks

 TemperatureHumidityPressure
High59 °F (Nov 28, 2:50 pm)93% (Nov 30, 2:50 am)30.39 "Hg (Nov 30, 2:50 am)
Low19 °F (Nov 24, 5:50 am)10% (Nov 28, 3:50 pm)29.74 "Hg (Dec 1, 4:50 pm)
Average37 °F60%30.11 "Hg
* Reported Nov 20 9:50 pm — Dec 5 9:50 pm, Konya, Weather by CustomWeather, © 2016

Note: Actual official high and low records may vary slightly from our data, if they occured in-between our weather recording intervals... More about our weather records

Advertising

Konya Weather History for the Previous 24 Hours

Scroll right to see more
 ConditionsComfort  
Time TempWeatherWind HumidityBarometerVisibility
9:50 pm
Mon, Dec 5
30 °FClear.13 mph75%30.39 "Hg10 mi
8:50 pm32 °FClear.8 mph75%30.39 "Hg10 mi
7:50 pm32 °FPassing clouds.6 mph64%30.39 "HgN/A
6:50 pm34 °FPassing clouds.9 mph65%30.39 "HgN/A
5:50 pm34 °FPassing clouds.9 mph70%30.36 "HgN/A
4:50 pm36 °FScattered clouds.20 mph70%30.36 "HgN/A
3:50 pm37 °FBroken clouds.12 mph56%30.36 "HgN/A
2:50 pm37 °FBroken clouds.20 mph60%30.33 "HgN/A
1:50 pm37 °FBroken clouds.20 mph70%30.33 "HgN/A
12:50 pm37 °FBroken clouds.16 mph65%30.33 "HgN/A
11:50 am37 °FBroken clouds.15 mph75%30.33 "HgN/A
10:50 am36 °FLight rain. Broken clouds.16 mph93%30.33 "Hg3 mi
9:50 am37 °FLight rain. Broken clouds.14 mph81%30.33 "Hg4 mi
8:50 am37 °FBroken clouds.9 mph87%30.30 "Hg6 mi
7:50 am37 °FPassing clouds.8 mph87%30.30 "HgN/A
6:50 am37 °FPartly cloudy.3 mph87%30.27 "HgN/A
5:50 am36 °FPassing clouds.7 mph93%30.27 "HgN/A
4:50 am37 °FPassing clouds.7 mph87%30.27 "HgN/A
3:50 am36 °FClear.3 mph93%30.27 "Hg5 mi
2:50 am34 °FPassing clouds.3 mph87%30.27 "Hg4 mi
1:50 am34 °FPassing clouds.2 mph87%30.27 "HgN/A
12:50 am37 °FPassing clouds.2 mph81%30.30 "HgN/A
11:50 pm
Sun, Dec 4
37 °FPassing clouds.7 mph87%30.30 "HgN/A
Weather by CustomWeather, © 2016

See weather overviewHow to use our weather pages